TimeMST,TemperatureF,Dew PointF,Humidity,Sea Level PressureIn,VisibilityMPH,Wind Direction,Wind SpeedMPH,Gust SpeedMPH,PrecipitationIn,Events,Conditions,WindDirDegrees,DateUTC
12:53 AM,28.9,19.0,67,30.09,10.0,East,6.9,-,N/A,,Overcast,90,2014-01-08 07:53:00
1:53 AM,27.0,18.0,69,30.11,10.0,East,5.8,-,N/A,,Scattered Clouds,90,2014-01-08 08:53:00
2:53 AM,27.0,17.1,66,30.13,10.0,East,5.8,-,N/A,,Mostly Cloudy,90,2014-01-08 09:53:00
3:53 AM,25.0,17.1,72,30.14,10.0,ESE,6.9,-,N/A,,Mostly Cloudy,110,2014-01-08 10:53:00
4:53 AM,21.9,16.0,78,30.18,10.0,ENE,5.8,-,N/A,,Clear,70,2014-01-08 11:53:00
5:53 AM,21.9,16.0,78,30.20,10.0,Calm,Calm,-,N/A,,Overcast,0,2014-01-08 12:53:00
6:53 AM,23.0,17.1,78,30.22,10.0,SE,3.5,-,N/A,,Overcast,130,2014-01-08 13:53:00
7:53 AM,24.1,17.1,75,30.25,10.0,ESE,3.5,-,N/A,,Overcast,110,2014-01-08 14:53:00
8:53 AM,25.0,17.1,72,30.27,10.0,SSE,8.1,-,N/A,,Overcast,150,2014-01-08 15:53:00
9:53 AM,28.0,18.0,66,30.28,10.0,SSE,12.7,-,N/A,,Overcast,150,2014-01-08 16:53:00
10:53 AM,28.9,18.0,64,30.27,10.0,SSE,12.7,-,N/A,,Overcast,150,2014-01-08 17:53:00
11:53 AM,30.0,18.0,61,30.23,10.0,SSE,11.5,-,N/A,,Overcast,160,2014-01-08 18:53:00
12:53 PM,32.0,18.0,56,30.20,10.0,SSE,11.5,-,N/A,,Mostly Cloudy,150,2014-01-08 19:53:00
1:53 PM,33.1,18.0,54,30.19,10.0,South,11.5,-,N/A,,Clear,170,2014-01-08 20:53:00
2:53 PM,34.0,18.0,52,30.18,10.0,SSE,12.7,-,N/A,,Clear,160,2014-01-08 21:53:00
3:53 PM,32.0,18.0,56,30.20,10.0,SSE,10.4,-,N/A,,Clear,160,2014-01-08 22:53:00
4:53 PM,26.1,18.0,71,30.22,10.0,SE,10.4,-,N/A,,Clear,140,2014-01-08 23:53:00
5:53 PM,21.9,18.0,85,30.24,10.0,SE,10.4,-,N/A,,Clear,140,2014-01-09 00:53:00
6:53 PM,19.0,16.0,88,30.25,10.0,SE,8.1,-,N/A,,Clear,140,2014-01-09 01:53:00
7:53 PM,19.0,17.1,92,30.25,10.0,SSE,10.4,-,N/A,,Clear,150,2014-01-09 02:53:00
8:53 PM,19.0,16.0,88,30.25,10.0,SSE,9.2,-,N/A,,Clear,150,2014-01-09 03:53:00
9:26 PM,17.6,15.8,93,30.12,10.0,SSE,9.2,-,N/A,,Scattered Clouds,160,2014-01-09 04:26:00
9:35 PM,19.4,17.6,93,30.12,10.0,SSE,11.5,-,N/A,,Mostly Cloudy,150,2014-01-09 04:35:00
9:53 PM,19.9,17.1,89,30.23,10.0,SSE,12.7,-,N/A,,Mostly Cloudy,150,2014-01-09 04:53:00
10:05 PM,19.4,17.6,93,30.11,10.0,SSE,12.7,-,N/A,,Scattered Clouds,160,2014-01-09 05:05:00
10:53 PM,18.0,16.0,92,30.22,10.0,SSE,10.4,-,N/A,,Clear,160,2014-01-09 05:53:00
11:53 PM,16.0,14.0,92,30.20,10.0,SSE,9.2,-,N/A,,Clear,160,2014-01-09 06:53:00